Temp
-7 -7 -7 -7 -7 -7 -7 -8 -8 -7 -7 -7 -7 -7 -7 -7 -8 -8 -8 -8 -8 -8 -8 -8 -8 -9 -10 -10 -11 -12 -12 -13 -13 -13 -13 -13 -14 -13 -13 -13 -13 -13 -13
-7 -7 -7 -7 -7 -8 -8 -8 -8 -7 -7 -7 -7 -7 -8 -8 -8 -7 -8 -8 -8 -8 -8 -9 -9 -10 -11 -12 -13 -13 -14 -14 -14 -13 -13 -14 -14 -14 -13 -13 -13 -13 -13
-7 -7 -7 -7 -7 -8 -8 -8 -8 -8 -8 -8 -8 -8 -8 -8 -8 -8 -8 -8 -8 -8 -9 -10 -10 -11 -12 -13 -14 -14 -15 -15 -15 -14 -14 -14 -14 -14 -14 -14 -14 -14 -14
-7 -7 -8 -8 -8 -8 -8 -9 -9 -9 -8 -8 -8 -8 -8 -8 -8 -8 -8 -8 -9 -10 -10 -10 -11 -13 -13 -14 -15 -15 -15 -16 -15 -15 -15 -15 -15 -15 -15 -15 -14 -14 -14
-7 -8 -8 -8 -8 -8 -8 -9 -9 -9 -9 -9 -8 -8 -8 -8 -8 -9 -9 -9 -10 -10 -10 -11 -13 -14 -15 -15 -16 -16 -16 -16 -16 -16 -15 -15 -15 -15 -15 -15 -15 -14 -14
-8 -8 -8 -8 -8 -8 -9 -9 -8 -8 -9 -9 -9 -9 -8 -8 -9 -9 -9 -10 -10 -10 -11 -12 -13 -14 -15 -16 -17 -18 -19 -18 -17 -16 -16 -16 -16 -15 -15 -15 -15 -14 -15
-8 -8 -8 -8 -9 -9 -9 -9 -10 -9 -9 -9 -9 -9 -9 -9 -9 -9 -9 -10 -10 -10 -11 -13 -13 -14 -14 -16 -17 -19 -20 -19 -18 -16 -16 -16 -16 -15 -15 -15 -15 -14 -14
-8 -8 -8 -8 -9 -9 -9 -9 -9 -10 -9 -9 -9 -9 -9 -9 -9 -9 -10 -10 -11 -11 -12 -13 -13 -13 -14 -15 -16 -17 -18 -18 -17 -16 -16 -16 -15 -15 -15 -15 -15 -15 -15
-8 -8 -8 -8 -9 -9 -9 -10 -10 -9 -9 -9 -9 -10 -10 -9 -9 -10 -10 -10 -11 -11 -12 -13 -13 -13 -14 -14 -15 -16 -16 -16 -16 -16 -15 -15 -15 -15 -15 -15 -15 -15 -15
-8 -8 -8 -9 -8 -9 -10 -10 -10 -9 -10 -9 -10 -10 -10 -10 -9 -10 -10 -11 -11 -11 -13 -13 -12 -13 -13 -14 -14 -15 -15 -15 -15 -15 -15 -15 -15 -15 -15 -15 -15 -14 -14
-8 -8 -8 -8 -8 -9 -10 -10 -10 -9 -9 -10 -9 -10 -10 -10 -10 -10 -11 -11 -11 -12 -13 -13 -13 -13 -13 -13 -14 -14 -15 -15 -15 -15 -15 -15 -15 -15 -14 -14 -15 -14 -13
-8 -8 -8 -9 -9 -10 -10 -10 -10 -10 -9 -10 -10 -10 -10 -10 -10 -11 -11 -11 -12 -12 -13 -13 -13 -13 -13 -13 -14 -14 -14 -15 -15 -15 -16 -16 -16 -16 -14 -14 -14 -14 -14
-8 -8 -8 -9 -9 -9 -10 -10 -10 -10 -10 -10 -10 -10 -10 -10 -10 -11 -12 -12 -12 -12 -13 -13 -13 -14 -13 -13 -14 -14 -15 -15 -15 -15 -15 -15 -15 -14 -14 -14 -14 -14 -14
-8 -8 -8 -9 -9 -10 -10 -10 -10 -10 -10 -11 -10 -10 -11 -11 -11 -12 -12 -12 -12 -13 -13 -14 -14 -14 -14 -14 -14 -15 -15 -15 -15 -15 -15 -15 -14 -14 -14 -14 -14 -13 -14
-8 -8 -9 -9 -9 -10 -10 -10 -10 -10 -11 -10 -10 -10 -11 -11 -12 -12 -13 -13 -13 -13 -14 -14 -15 -14 -15 -15 -15 -15 -15 -16 -15 -15 -15 -15 -15 -15 -14 -14 -14 -13 -13
-8 -9 -9 -9 -10 -10 -10 -10 -11 -10 -11 -11 -11 -11 -11 -12 -12 -12 -13 -13 -13 -14 -14 -15 -15 -15 -15 -15 -15 -15 -15 -15 -15 -15 -15 -15 -15 -15 -15 -14 -14 -13 -13
-9 -9 -9 -9 -10 -10 -10 -10 -10 -11 -11 -11 -12 -11 -11 -12 -12 -13 -13 -13 -13 -14 -14 -15 -15 -15 -15 -15 -15 -15 -15 -15 -15 -15 -15 -15 -15 -15 -15 -15 -14 -14 -14
-9 -9 -9 -10 -10 -10 -10 -10 -11 -11 -12 -12 -12 -12 -12 -12 -13 -13 -13 -13 -14 -14 -14 -15 -15 -15 -15 -15 -15 -15 -15 -15 -15 -16 -15 -15 -15 -15 -15 -15 -15 -14 -14
-9 -9 -10 -10 -10 -10 -11 -10 -11 -11 -10 -13 -13 -12 -13 -13 -13 -13 -13 -14 -14 -14 -14 -15 -16 -16 -16 -16 -15 -15 -16 -16 -16 -16 -16 -16 -16 -16 -16 -15 -15 -15 -14
-9 -10 -9 -10 -10 -10 -10 -10 -11 -11 -11 -12 -12 -13 -14 -14 -14 -14 -14 -14 -14 -14 -14 -15 -16 -16 -16 -16 -16 -16 -16 -16 -16 -16 -16 -16 -16 -16 -16 -16 -16 -16 -15
-9 -10 -10 -10 -10 -10 -11 -11 -11 -11 -11 -12 -12 -13 -14 -14 -14 -14 -14 -14 -15 -15 -15 -15 -16 -16 -17 -17 -17 -16 -16 -16 -16 -16 -17 -17 -17 -17 -17 -16 -16 -16 -16
-10 -10 -11 -10 -10 -11 -11 -11 -11 -10 -11 -11 -13 -14 -15 -14 -14 -14 -14 -15 -15 -15 -15 -16 -16 -17 -17 -17 -17 -17 -17 -17 -17 -17 -17 -17 -17 -17 -17 -17 -17 -17 -17
-10 -10 -10 -10 -11 -10 -10 -11 -11 -11 -11 -12 -13 -15 -15 -14 -14 -15 -15 -15 -15 -15 -16 -16 -16 -17 -17 -17 -18 -18 -18 -18 -18 -18 -18 -18 -18 -18 -18 -17 -17 -17 -17
-9 -10 -10 -11 -10 -10 -11 -11 -11 -12 -12 -13 -14 -15 -14 -14 -15 -15 -15 -15 -16 -16 -16 -17 -17 -17 -17 -18 -18 -18 -18 -18 -18 -18 -18 -18 -18 -18 -18 -18 -18 -18 -17
-10 -10 -10 -10 -10 -11 -11 -11 -12 -12 -13 -13 -15 -15 -15 -15 -15 -15 -15 -16 -16 -16 -17 -17 -17 -17 -18 -18 -18 -18 -18 -19 -19 -19 -19 -19 -18 -18 -18 -18 -18 -18 -18
-11 -11 -11 -11 -11 -11 -11 -12 -12 -13 -14 -16 -16 -15 -15 -15 -15 -15 -16 -16 -16 -17 -17 -17 -17 -18 -18 -18 -18 -19 -19 -19 -19 -19 -19 -19 -19 -19 -19 -19 -19 -19 -19
Height
5945 5944 5943 5940 5938 5936 5934 5932 5927 5923 5917 5912 5908 5904 5899 5894 5888 5881 5875 5869 5862 5854 5846 5838 5829 5819 5809 5798 5788 5778 5769 5759 5753 5761 5751 5747 5744 5742 5741 5738 5737 5737 5737
5943 5942 5940 5939 5937 5936 5933 5929 5925 5920 5915 5909 5904 5899 5894 5889 5881 5874 5868 5861 5854 5846 5837 5826 5816 5805 5793 5779 5769 5762 5753 5746 5738 5740 5736 5731 5728 5727 5725 5723 5721 5719 5717
5940 5939 5938 5937 5935 5932 5929 5925 5921 5916 5910 5904 5900 5895 5889 5881 5874 5868 5860 5853 5844 5834 5823 5813 5801 5788 5775 5766 5754 5744 5736 5730 5725 5723 5722 5717 5714 5711 5710 5708 5705 5703 5702
5938 5937 5935 5934 5932 5929 5925 5921 5916 5910 5905 5900 5894 5887 5881 5873 5866 5860 5851 5843 5834 5823 5811 5800 5787 5772 5762 5750 5738 5728 5720 5714 5711 5710 5708 5706 5703 5701 5697 5694 5693 5690 5686
5934 5933 5932 5930 5928 5924 5920 5916 5911 5904 5899 5892 5887 5880 5874 5865 5857 5850 5842 5833 5823 5812 5800 5787 5773 5760 5746 5733 5719 5707 5697 5694 5694 5696 5697 5695 5693 5691 5688 5686 5682 5678 5676
5931 5929 5927 5926 5923 5919 5915 5910 5905 5899 5894 5887 5880 5873 5865 5857 5849 5842 5834 5824 5814 5802 5791 5778 5763 5750 5735 5716 5696 5679 5670 5670 5677 5683 5686 5685 5684 5681 5679 5676 5671 5668 5666
5926 5925 5923 5920 5917 5912 5908 5903 5897 5893 5886 5880 5873 5867 5857 5848 5842 5833 5824 5816 5806 5795 5782 5768 5752 5741 5727 5707 5687 5669 5661 5661 5667 5673 5677 5676 5676 5674 5671 5668 5662 5658 5657
5922 5920 5917 5915 5911 5906 5900 5895 5890 5884 5877 5872 5864 5859 5850 5841 5834 5826 5817 5807 5798 5786 5771 5758 5746 5733 5720 5705 5689 5675 5667 5665 5667 5670 5672 5671 5669 5668 5664 5659 5655 5652 5649
5916 5914 5911 5908 5904 5899 5894 5888 5885 5878 5870 5864 5856 5852 5844 5835 5827 5818 5810 5800 5790 5779 5765 5752 5740 5728 5714 5704 5693 5682 5676 5671 5669 5669 5668 5667 5665 5661 5659 5654 5649 5644 5642
5909 5907 5905 5902 5898 5893 5888 5882 5875 5870 5862 5855 5847 5843 5837 5828 5819 5811 5803 5795 5786 5775 5761 5748 5739 5728 5715 5705 5697 5687 5680 5676 5672 5669 5666 5664 5662 5658 5654 5650 5643 5637 5632
5902 5900 5897 5894 5891 5887 5881 5876 5869 5862 5854 5847 5838 5835 5830 5821 5812 5806 5799 5790 5780 5770 5758 5747 5737 5728 5718 5708 5700 5692 5684 5678 5673 5669 5665 5662 5660 5657 5653 5648 5641 5631 5624
5894 5892 5889 5886 5883 5878 5874 5868 5862 5855 5848 5841 5833 5828 5822 5814 5807 5800 5793 5785 5775 5766 5755 5745 5736 5727 5721 5710 5701 5694 5686 5679 5674 5670 5666 5663 5660 5658 5652 5647 5640 5630 5623
5885 5882 5880 5878 5874 5869 5865 5861 5854 5847 5841 5834 5827 5820 5813 5808 5801 5793 5787 5780 5771 5761 5753 5743 5734 5726 5718 5711 5701 5694 5687 5682 5677 5673 5670 5666 5663 5658 5652 5645 5639 5633 5623
5874 5872 5871 5869 5865 5861 5857 5852 5846 5840 5833 5827 5819 5813 5807 5801 5794 5788 5782 5774 5767 5759 5752 5742 5735 5728 5718 5709 5702 5695 5691 5687 5682 5678 5673 5668 5662 5657 5651 5646 5639 5633 5627
5865 5863 5862 5859 5857 5854 5850 5845 5839 5833 5825 5818 5812 5806 5800 5794 5788 5783 5777 5770 5763 5756 5748 5741 5735 5728 5719 5711 5704 5697 5693 5688 5684 5679 5674 5668 5663 5657 5651 5645 5639 5632 5625
5857 5856 5854 5852 5850 5845 5841 5836 5830 5823 5817 5809 5804 5798 5793 5788 5782 5777 5772 5766 5759 5752 5746 5739 5735 5728 5721 5715 5706 5700 5695 5691 5686 5680 5675 5669 5664 5659 5652 5646 5639 5632 5626
5850 5848 5846 5844 5842 5838 5832 5828 5822 5814 5808 5801 5795 5790 5786 5781 5777 5772 5767 5761 5755 5748 5743 5738 5733 5728 5723 5717 5711 5703 5696 5692 5687 5681 5676 5670 5664 5658 5653 5647 5640 5634 5626
5840 5839 5837 5835 5832 5828 5823 5818 5815 5805 5800 5794 5787 5783 5778 5773 5770 5767 5761 5756 5750 5745 5739 5734 5730 5726 5720 5715 5710 5704 5697 5692 5687 5682 5677 5671 5665 5659 5653 5647 5641 5633 5627
5832 5831 5829 5826 5822 5818 5811 5804 5801 5797 5792 5788 5781 5775 5771 5766 5762 5759 5755 5749 5744 5739 5734 5729 5725 5721 5717 5712 5708 5703 5697 5691 5686 5681 5676 5671 5665 5659 5653 5647 5640 5634 5628
5824 5822 5820 5816 5812 5808 5802 5796 5790 5787 5781 5777 5773 5769 5763 5760 5755 5751 5747 5743 5738 5734 5729 5724 5720 5716 5712 5708 5704 5700 5695 5689 5683 5678 5674 5668 5663 5658 5652 5645 5639 5633 5628
5814 5812 5809 5806 5801 5798 5793 5788 5782 5776 5771 5767 5759 5757 5755 5752 5749 5746 5741 5736 5731 5727 5722 5717 5713 5710 5705 5702 5698 5694 5690 5686 5680 5675 5670 5665 5660 5655 5650 5644 5638 5632 5627
5802 5799 5796 5793 5790 5786 5781 5777 5771 5765 5760 5756 5750 5746 5745 5743 5740 5737 5733 5729 5725 5720 5715 5711 5706 5702 5699 5694 5691 5687 5683 5679 5674 5669 5665 5661 5656 5651 5647 5642 5637 5632 5626
5790 5787 5784 5781 5777 5772 5767 5764 5759 5753 5748 5743 5741 5737 5736 5734 5731 5729 5726 5722 5718 5714 5709 5704 5700 5696 5692 5688 5684 5680 5676 5672 5668 5664 5659 5655 5651 5647 5643 5638 5633 5629 5625
5778 5776 5773 5770 5765 5760 5756 5752 5747 5743 5738 5734 5730 5730 5728 5725 5723 5721 5718 5714 5710 5706 5702 5697 5693 5689 5685 5680 5677 5673 5669 5665 5661 5657 5653 5650 5646 5642 5637 5633 5629 5625 5621
5766 5763 5761 5757 5751 5746 5743 5738 5734 5730 5727 5724 5723 5722 5720 5718 5716 5713 5710 5706 5703 5699 5695 5690 5686 5682 5678 5674 5669 5666 5662 5658 5654 5651 5647 5643 5639 5635 5632 5628 5624 5620 5616
5753 5751 5748 5744 5739 5735 5730 5726 5723 5720 5718 5716 5717 5715 5712 5710 5708 5705 5702 5698 5694 5691 5686 5682 5678 5674 5670 5666 5662 5659 5655 5651 5647 5643 5640 5636 5633 5629 5625 5622 5618 5614 5610
Wind_Speed
15 16 16 18 22 26 26 27 29 30 31 29 27 26 26 28 32 35 38 41 45 48 52 56 60 63 64 64 65 66 66 66 63 55 54 50 47 47 45 45 45 44 43
16 19 18 18 20 21 24 29 32 34 32 28 27 29 31 34 37 40 41 45 49 53 59 61 62 63 65 65 64 63 63 62 63 57 54 53 52 51 49 49 50 51 51
17 21 22 20 20 24 26 28 33 36 35 29 32 33 35 38 42 43 45 48 53 59 59 61 65 66 66 62 61 60 58 55 54 53 50 50 50 50 49 50 49 46 44
18 19 21 23 22 25 29 32 34 38 41 37 37 38 39 42 45 47 48 52 56 57 59 65 65 65 63 63 64 64 61 55 50 44 40 39 38 37 39 40 39 42 42
22 23 24 23 24 28 33 38 44 42 41 44 42 40 44 45 47 49 52 55 54 57 63 63 62 65 62 62 61 59 58 53 48 45 40 37 36 36 37 38 40 40 38
23 26 28 28 30 32 38 44 46 49 53 50 45 43 45 48 49 50 54 54 54 59 63 59 62 59 63 62 58 55 54 47 40 34 35 35 34 35 35 36 38 35 34
27 29 31 33 37 39 43 48 54 52 40 46 46 44 47 51 51 53 55 52 57 60 62 59 58 56 66 61 54 41 29 25 24 24 28 30 28 31 30 33 32 26 29
31 33 34 37 39 44 46 50 54 46 49 49 46 45 48 53 52 54 53 53 57 59 57 58 53 55 59 55 48 42 30 19 15 20 23 22 23 25 29 29 26 30 32
35 36 38 40 43 46 49 53 45 50 50 47 51 44 47 52 51 53 53 55 56 57 54 55 51 61 53 51 42 37 32 23 17 16 17 19 20 24 21 21 28 26 22
34 38 41 43 46 48 48 52 48 53 52 54 55 42 46 49 51 52 53 52 54 54 50 53 47 52 53 42 39 33 29 25 21 20 18 20 19 13 22 22 32 21 23
33 35 39 43 45 45 45 47 47 51 50 52 37 40 44 47 50 51 49 48 51 50 48 49 42 46 46 39 36 32 28 25 22 26 21 13 17 22 23 28 34 31 29
39 41 44 44 44 44 40 42 45 48 49 44 43 43 46 48 51 47 46 46 48 46 46 45 40 41 47 42 38 38 36 33 22 16 18 23 23 22 26 29 32 42 32
42 43 45 44 43 41 38 43 50 48 50 49 47 46 48 48 48 44 43 43 45 44 45 45 44 39 42 42 37 37 32 26 21 22 23 20 22 22 23 28 29 34 36
42 43 41 40 38 40 43 48 48 48 48 51 46 46 47 47 45 42 40 39 41 40 40 42 41 41 40 34 32 31 26 23 21 21 22 24 25 26 26 27 28 26 37
42 39 37 37 38 40 41 47 47 50 52 49 44 45 45 45 43 41 38 36 37 37 36 36 35 37 36 33 31 29 28 25 26 26 26 26 26 26 26 28 30 31 30
37 33 36 36 37 43 47 50 51 51 54 48 45 46 44 43 41 39 35 33 34 34 33 32 32 32 30 30 30 30 29 28 27 27 27 27 26 26 25 27 29 31 29
33 34 36 38 41 45 50 51 50 51 55 48 43 43 42 42 40 37 34 32 32 32 31 28 29 30 28 28 29 28 28 29 29 28 28 28 28 28 28 27 28 29 31
35 37 40 42 46 51 52 50 51 50 49 46 46 44 41 39 37 36 33 32 31 32 30 28 28 28 27 27 27 27 27 27 28 29 31 31 30 29 29 29 28 28 29
39 41 43 43 45 49 51 57 52 44 43 43 46 47 39 36 34 33 32 31 31 32 31 29 28 28 27 27 27 27 26 26 27 29 30 31 31 30 30 30 30 29 29
34 36 41 43 46 45 48 58 50 51 46 46 47 42 35 35 34 33 32 31 31 32 31 30 29 29 29 28 27 28 29 28 28 29 30 32 31 29 31 30 30 30 29
34 40 43 45 46 48 50 45 50 51 52 52 52 46 31 32 33 33 32 31 32 32 32 31 30 30 30 31 30 30 30 29 28 29 29 29 30 30 29 29 30 31 30
36 40 43 46 48 52 54 53 51 56 61 63 43 31 29 31 32 32 32 31 31 32 33 31 30 30 30 30 32 31 30 29 29 29 29 29 29 30 30 29 27 28 29
38 44 43 45 51 49 57 48 58 54 56 56 33 27 30 31 31 32 33 32 32 33 33 32 30 31 31 31 31 31 31 30 29 29 29 29 29 31 30 29 28 27 27
42 44 46 52 52 51 62 57 64 58 60 36 28 29 31 31 31 33 33 33 33 33 33 32 32 31 32 32 32 32 32 31 30 30 29 28 29 30 30 29 27 26 26
44 46 50 49 50 50 53 58 51 51 40 30 27 31 32 32 32 33 34 34 34 35 34 34 33 33 33 32 32 33 33 31 30 29 29 29 30 30 29 28 27 27 27
48 51 47 50 51 53 54 52 48 40 29 27 29 31 32 31 33 34 35 36 36 36 36 36 35 34 33 33 32 32 32 31 30 30 30 30 29 29 29 28 27 28 28
Wind_Direction
322 323 329 340 341 337 338 346 344 342 333 326 323 323 323 322 323 319 322 323 324 321 319 316 311 307 306 304 299 296 296 298 299 299 299 297 297 296 294 292 289 286 284
309 315 317 324 329 331 333 337 341 340 333 326 325 325 326 329 323 325 325 325 324 322 319 315 314 314 309 302 300 299 298 297 297 296 296 297 296 294 293 291 291 290 289
304 308 311 314 321 333 331 340 339 337 333 327 325 325 330 329 328 325 326 326 326 322 321 321 318 313 308 310 306 300 297 297 296 296 295 296 294 294 294 293 291 293 291
301 308 311 316 322 324 330 326 330 337 342 331 328 326 330 328 327 327 327 327 326 325 325 324 318 314 314 308 308 303 298 293 291 294 295 296 297 300 297 296 297 295 293
295 304 307 312 327 326 327 325 321 326 327 330 327 323 328 328 328 329 329 329 328 329 329 325 324 320 321 317 309 303 293 288 285 284 288 293 297 297 297 298 298 296 292
300 300 304 312 317 319 318 314 320 324 322 321 327 324 325 328 330 329 329 331 331 333 332 330 325 328 330 331 323 307 295 288 281 277 282 291 295 299 302 303 297 296 295
294 296 300 304 305 304 311 313 315 320 324 319 325 323 324 328 330 331 332 333 334 335 336 334 333 340 341 344 347 341 326 310 290 276 291 297 297 304 309 298 306 297 292
296 296 297 299 303 308 309 311 326 328 325 322 325 322 326 327 330 332 334 335 336 337 340 339 340 344 343 352 357 1 360 347 311 294 304 305 311 304 300 313 297 289 287
292 289 292 297 306 307 308 322 325 326 325 324 321 322 326 328 329 336 334 334 338 341 343 343 344 345 347 352 358 6 9 7 355 337 327 323 315 320 334 335 320 318 300
290 287 291 297 301 306 313 319 326 326 316 316 319 319 325 328 331 336 332 335 341 344 344 346 348 356 -0 357 359 2 3 2 356 355 343 328 324 7 344 329 354 339 330
291 291 292 294 299 308 309 320 320 320 319 322 321 319 327 330 332 332 331 336 343 344 346 348 351 355 359 359 358 359 357 349 341 340 338 335 24 7 348 346 347 2 357
288 285 287 292 298 300 310 318 315 317 317 315 313 321 326 331 331 331 330 337 343 345 347 350 348 353 352 358 354 352 353 358 354 3 30 11 20 8 352 356 5 4 5
286 284 284 288 293 298 307 311 309 312 315 317 316 322 327 326 330 330 329 337 343 345 347 352 355 347 350 352 355 353 359 14 17 19 8 7 1 356 357 356 360 5 2
282 281 284 286 288 296 301 305 307 314 314 316 316 320 324 327 330 328 328 336 341 343 346 352 357 352 354 353 356 4 6 7 6 4 0 0 1 3 359 357 356 356 7
281 280 282 285 290 296 299 307 311 313 322 317 312 317 322 328 327 325 325 334 338 341 344 353 349 355 4 8 10 11 7 2 2 1 0 2 3 1 360 359 359 0 5
278 277 282 284 291 295 301 306 308 311 318 314 310 315 321 326 323 322 322 329 336 338 340 350 348 351 356 4 12 11 10 7 5 3 1 -0 0 1 1 0 1 1 5
272 274 278 281 286 295 299 305 310 312 313 312 309 313 319 322 320 317 319 325 331 334 335 341 341 347 354 2 3 8 12 9 6 3 360 357 357 357 359 0 0 1 5
272 274 280 283 288 296 304 303 303 306 313 312 310 311 315 318 316 315 318 320 326 329 330 331 334 335 335 340 347 354 359 0 1 360 358 358 355 354 355 355 1 0 2
280 284 285 290 294 300 303 309 307 312 311 312 308 307 313 314 312 312 313 317 323 322 324 324 325 329 331 330 331 333 341 347 351 351 350 350 349 351 352 350 355 0 357
285 290 289 292 297 300 302 313 299 307 304 307 306 301 308 311 309 309 313 315 319 318 319 319 318 320 323 324 326 326 327 332 336 339 340 342 342 344 346 347 349 350 354
286 293 290 292 293 299 306 320 312 310 307 299 295 298 310 311 305 306 310 314 317 316 315 316 315 313 315 317 318 320 321 323 326 328 331 333 336 337 339 340 343 345 346
283 287 288 290 295 293 301 293 313 305 301 306 297 304 310 302 301 303 306 311 315 314 313 315 315 312 310 312 314 318 321 323 325 327 327 328 331 334 333 336 337 337 340
279 283 292 299 300 300 305 297 307 305 304 299 295 307 297 300 301 301 304 309 310 312 313 314 315 314 313 312 312 313 316 319 322 324 325 326 326 328 330 331 331 332 332
284 289 289 296 296 302 296 298 297 301 303 292 304 298 293 298 298 299 303 305 306 309 312 312 314 314 313 312 312 311 313 316 317 320 321 321 322 324 325 326 325 327 329
285 287 291 295 297 296 294 296 294 296 288 293 297 292 295 298 297 300 302 304 305 306 310 310 311 311 311 312 313 312 311 313 314 316 317 318 320 320 320 320 321 323 325
285 291 292 294 292 295 295 294 296 287 287 294 293 292 294 296 298 302 302 304 305 305 306 307 308 309 310 310 311 311 311 312 313 314 315 317 317 316 317 317 319 319 320